Погода в Бахердене

Погода в Бахердене : погода сейчас, прогноз погоды и архив. Всё, что Вы хотите узнать о погоде в Бахердене!

Поиск расширенной информации на нашем сайте:

Другие новости

Новости СМИ2

Главная страница сайта

Новости сайта

03.07.2017

Напоминаем, что на нашем специализированном сайте Метеоцентр.Азия вы можете получить высокодетализированные автоматические прогнозы погоды по пунктам России, СНГ и мира в авиационном формате (включающие направление и скорость ветра, видимость, явления погоды, количество и форму облачности, нижнюю и верхнюю границу облачности).

Рекомендуем: Прямо на сайте экспресс заказ пазла, подробности на сайте.

Погода в Бахердене - сегодня

Время (UTC), дата Ветер
(°,м/с) 
Видим.   Явления Облачность Т
(°С)
Тd
(°С)
f(%) Тe
(°С)
Pmin
(гПа)
dP
(гПа)
Po
(мм)
O2
(г/м3)
Тmin Tmax R s Состояние
почвы
15 18.11.18 тихо ()   2000 м    8/8 2000 м средняя 
[Ac As]
+12.8 +6.8 67 +13  1023.6  0.4  753  289    +16.7       
18 18.11.18 200 (Ю) 2000 м    8/0 верхняя 
[Cs]
+11.6 +6.8 72 +13  1023.6  -0.1  753  290    +16.7       
21 18.11.18 290 (З) 2000 м    10/10 2000 м 
[Ac As]
+11.4 +6.8 73 +13  1022.5  -1.1  752  290           
00 19.11.18 310 (СЗ) 20000 м    10/10 300 м кучево-дожд. 
[Cb cap]
+9 +4.3 72 +8  1024.1  1.4  753  293           
03 19.11.18 300 (СЗ) 10 км  {ливн. осадки}  10/10 300 м кучево-дожд. 
[Cb cap]
+9 +2.7 65 +10  1024  -0.1  753  293         
06 19.11.18 310 (СЗ) 10 км  слаб. ливневой дождь  10/10 300 м кучево-дожд. 
[Cb cap]
+8.3 +6.1 86 +8  1026.3  2.3  755  294  +8.9         
09 19.11.18 120 (ЮВ) 20000 м    8/3 300 м кучево-дожд., средняя 
[Cb cap|Ac As]
+9.6 +6.5 81 +11  1024  -2.3  753  292           
12 19.11.18 320 (СЗ) 10 км    10/4 300 м кучево-дожд., средняя 
[Cb cap|Ac As]
+9.4 +7.6 89 +9  1026.6  2.6  755  293           
15 19.11.18 280 (З) 2000 м    10/4 300 м кучево-дожд., средняя 
[Cb cap|Ac As]
+9.2 +8 92 +10  1026.9  0.3  755  293    +9.8     
18 19.11.18 тихо ()   2000 м    4/4 2000 м средняя 
[Ac cast]
+8.1 +4.5 78 +8  1027.7  0.8  756  295    +9.8     
21 19.11.18 290 (З) 2000 м    ясно 
+5.8 +3.7 86 +7  1028.6  0.6  757  298           
00 20.11.18 тихо ()   2000 м    ясно 
+4.8 +3.3 90 +5  1027.7  -0.9  756  299           
03 20.11.18 220 (ЮЗ) 20000 м    ясно 
+5.4 +3.2 86 +6  1028.2  0.5  756  298           
06 20.11.18 080 (В) 20000 м    3/0 верхняя 
[Ci fib]
+10.5 +5.5 71 +10  1028.8  757  293  +4.6         
09 20.11.18 110 (В) 20000 м    6/3 600 м верхняя 
[Cu med, cong|Ci]
+13 +6.5 65 +13  1026.2  -2.4  755  289           
12 20.11.18 090 (В) 10 км    8/8 2000 м средняя 
[Ac As]
+12.6 +7.4 71 +13  1023.7  -2.5  753  289           
15 20.11.18 140 (ЮВ) 2000 м    8/8 2000 м средняя 
[Ac As]
+10.1 +8.6 90 +11  1022.8  -1  753  291    +13.2       
18 20.11.18 тихо ()   2000 м    ясно 
+7.4 +6.2 92 +7  1021.3  -1.7  751  294    +13.2       
21 20.11.18 150 (ЮВ) 0500 м  туман  ?/?  
+7.4 +7.4 100 +7  1019  -2.3  750  293           
00 21.11.18 160 (Ю) 0500 м  туман  ?/?  
+7.3 +7.3 100 +8  1016.9  -2  748  292           
03 21.11.18 160 (Ю) 2000 м  дымка  10/10 300 м 
[St]
+7.8 +7.1 95 +9  1014.6  -2.3  746  291           
06 21.11.18 тихо ()   2000 м  дымка  10/10 300 м 
[St]
+8.2 +7.6 96 +8  1014.6  0.1  746  291  +7.2         
09 21.11.18 320 (СЗ) 2000 м  дымка  10/10 300 м 
[St]
+10.4 +8.1 86 +11  1013.1  -1.3  745  288           
12 21.11.18 тихо ()   20000 м    10/10 2000 м 
[Ac As]
+12.1 +9.3 83 +13  1012.4  -0.6  745  286           
15 21.11.18 тихо ()   2000 м    8/8 2000 м средняя 
[Ac As]
+10.4 +8.8 90 +10  1014.7  2.2  747  288    +12.3       
Время (UTC), дата Ветер
(°,м/с) 
Видим.   Явления Облачность Т
(°С)
Тd
(°С)
f(%) Тe
(°С)
Pmin
(гПа)
dP
(гПа)
Po
(мм)
O2
(г/м3)
Тmin Tmax R s Состояние
почвы

Для получения пояснительной информации подведите курсор к названию столбца.

ПОГОДА в Бахердене - архив

Всё, что Вы хотите узнать о погоде в Бахердене - удобно и подробно!

Выберите нужную дату (начиная с 1 января 2015* года) и нажмите кнопку "Найти".
Будут отображены архивные сводки погоды по пункту Бахерден, начиная с указанной даты.


Отображать данные в формате CSV (для использования в таблицах Excel)


Внимание! Наш архив погоды предназначен исключительно для личного некоммерческого использования в познавательных целях. Если Вам необходимы официальные справки о состоянии погоды (для производственных, юридических, коммерческих и т.п. целей), обращайтесь в органы Росгидромета.

*Примечание: данная дата относится к архиву по метеостанциям СССР (Россия, СНГ, Балтия).
Архив по метеостанциям Зарубежной Европы и Азии (кроме Китая) хранится 10 дней, по другим регионам земного шара (Китай, Африка, Америка, Австралия, Океания) - 1 день.

Бахерден - район местоположения метеостанции


Название, широта, долгота, высота метеостанции:
Бахерден 38.4°ш. 57.4°д. 159 м над ур. моря [Туркменистан]

Дополнительная информация

В oтличие oт бoльшинства пoгoдных сайтoв мы публикуем пoдрoбную метеoинфoрмацию в детальнoм прoфессиoнальнoм фoрмате.

Характеристики температуры и влажнoсти вoздуха измеряются на высoте 2 м в тени вдали oт зданий и деревьев.
Скoрoсть ветра измеряется на высoте 10 м (на урoвне рoста челoвека скoрoсть ветра ниже в 1.5-2 раза). Если метеoстанция нахoдится в гoрoде или в лесу, тo скoрoсть ветра занижена на 2-4 м/с пo сравнению с oткрытым местoм. Скoрoсть ветра над акватoриями крупных рек и oзёр, а также на вершинах хoлмoв на 2-5 м/с выше, чем в oбычных услoвиях.
Атмoсфернoе давление в разных тoчках местнoсти мoжет значительнo oтличаться oт давления на метеoстанции, в зависимoсти oт услoвий рельефа (при пoдъёме на 10 м давление пoнижается примернo на 1 мм рт.ст.).